Showing default

COSMOS 203, 3129

Orbit data source: Space-Track

COSMOS 203, 3129 is a payload satellite owned by OKB-10 (CIS) in LEO that was launched on Tue, 20 Feb 1968 UTC via a KOSMOS 11K65M launch vehicle from the Plesetsk Missile And Space Complex (PKMTR). Payload-class satellites include a variety of spacecraft equipped with specific instruments for various scientific and technological missions. These include communications satellites like Starlink; space stations such as the ISS; scientific satellites like the Hubble; Earth observation satellites from companies like Planet Labs, Umbra, and HawkEye 360; GPS; miniature CubeSats for education and research; and military/defense satellites.

Loading next visibility...
Identifier
3129, 1968-011A
Orbit
LEO
Last TLE update
21 hours ago
Origin
Manufacturer
OKB-10
Mission
Defense Geodetic
Bus & Motor
KAUR-1 11F621, Unknown motor
Mass
800 kg wet, 800 kg dry
Launch date (UTC)
1968-02-20 (57 years ago)
Launch vehicle
KOSMOS 11K65M
Launch site
Plesetsk Missile And Space Complex (PKMTR)
Object type
Payload
Rocket body
Debris
Shape & HBR
Cyl + 1 Rod, 17 m
Radar Cross Section
6.283 m², Large (>1 m²)

Expand to show TLE details & history

TLE from 21 hours ago
0 COSMOS 203
1 03129U 68011A   25129.07512623  .00000210  00000-0  58376-3 0  9991
2 03129  74.0529 340.8406 0012872 259.3710 267.2798 13.18289720752721
Epoch: 2025-05-09T01:48Z
Definitive object data (Epoch: 2025-05-09T01:48:10.906Z)
Latitude
12.93843°
Longitude
-97.0862°
Altitude
1,193.457 km
Speed
7.258 km/s
True Right ascension
10h 28m 22s
True Declination
12° 52' 04"
Sunlit
Object was in daylight at TLE epoch
Visualization TLE readout
Latitude
67.07836°
Longitude
127.56788°
Altitude
1,212.215 km
Speed
7.25 km/s
Apparent Right ascension
21h 28m 29s
Apparent Declination
27° 02' 21"
Sunlit
Object is in daylight
Visualization observer readout
Local Sidereal Time
07:22:39
Azimuth
330.93° NNW
Elevation
-16.92°
Doppler factor
1
Orbital elements
Apogee altitude
1,198.755 km
Perigee altitude
1,179.274 km
Semi-major axis
7,567.151 km
Eccentricity
0.0012872
Inclination
74.0529°
RAAN
340.8406°
Arg. of periapsis
259.371°
True anomaly
267.13248°
Mean anomaly
267.2798°
Eccentric anomaly
267.20614°
Mean motion
3.29719 °/min
BSTAR
0.00058376
Orbital period
109.18 mins
Loading maneuver chart data...
Loading SW <> Apogee altitude chart data...
Loading historical data...
Loading historical data...
Loading historical data...
Loading historical data...
Loading historical data...
Loading historical data...
Loading historical data...
Other satellites on launch #11 in the year 1968 (1968-02-20 UTC)

COSMOS 203 Visibility forecast

Observer location: undefined°, undefined°

Span
Click to sort rows by Start time (UTC) header in descending order
Start Az.
Max El. time (UTC)
Max El. Az.
Max El.
End time (UTC)
End Az.
8 mins2025-05-09 23:23:04.177Z14.223° NNE2025-05-09 23:27:04.177Z47.668° ENE15.212°2025-05-09 23:31:04.177Z81.968° E
13 mins2025-05-10 01:14:04.177Z344.887° N2025-05-10 01:20:04.177Z86.438° E44.356°2025-05-10 01:27:04.177Z157.156° SSE
7 mins2025-05-10 03:07:04.177Z298.301° NW2025-05-10 03:10:04.177Z271.18° WNW17.11°2025-05-10 03:14:04.177Z235.024° WSW
7 mins2025-05-10 13:32:04.177Z116.64° SE2025-05-10 13:35:04.177Z88.217° E17.102°2025-05-10 13:39:04.177Z54.273° ENE
13 mins2025-05-10 15:19:04.177Z203.706° SW2025-05-10 15:25:04.177Z279.101° WNW44.404°2025-05-10 15:32:04.177Z16.272° NNE
6 mins2025-05-10 17:15:04.177Z286.046° WNW2025-05-10 17:18:04.177Z312.874° NW15.273°2025-05-10 17:21:04.177Z338.964° N
5 mins2025-05-10 23:05:04.177Z27.689° NE2025-05-10 23:07:04.177Z44.666° NE13.215°2025-05-10 23:10:04.177Z70.043° E
|